Location: Asheville, NC
(35.6000°N, 82.5500°W)
Time: 04:59:06
(UTC-04:00)

ISS - Pass Details

Date: 11 October 2017
Orbit: 401 x 408 km, 51.6° (Epoch: 20 October)

Event Time Altitude Azimuth Distance (km) Brightness Sun altitude
Rises 20:25:52 0° 322° (NW) 2,322 0.7 -18.3°
Reaches altitude 10° 20:28:15 10° 339° (NNW) 1,461 -0.7 -18.8°
Enters shadow 20:30:06 20° 10° (N) 1,002 -1.9 -19.2°
